Location: Antioch
(38.0049°N, 121.8058°W)
Time: 03:48:06
(UTC+00:00)

Cosmos 2208 Rocket - Pass Details

Date: 22 May 2026
Orbit: 751 x 800 km, 74.0° (Epoch: 9 June)

Event Time Altitude Azimuth Distance (km) Brightness Sun altitude
Exits shadow 09:42:33 24° 296° (WNW) 1,571 5.6 -27.1°
Maximum altitude 09:42:42 24° 298° (WNW) 1,570 5.6 -27.1°
Drops below altitude 10° 09:46:53 10° 351° (N) 2,308 7.1 -26.8°
Sets 09:49:42 0° 6° (N) 3,230 8.3 -26.5°
